• In Uzbekistan
  • List of Countries
  • For 7 days
  • Water Temperature
  • Satellite Maps
  • Weather Map
  • Weather Widgets
  • user-avatar
    Login

    Hourly Weather Luanda

    Today, 30 May, Tuesday

    Time Temperature Precipitation Wind Pressure Humidity
    00:00 +25°C° 0 mm 2 mps 756 mmHg 95%
    01:00 +25°C° 0 mm 2 mps 756 mmHg 96%
    02:00 +25°C° 0 mm 2 mps 755 mmHg 96%
    03:00 +25°C° 0 mm 2 mps 755 mmHg 96%
    04:00 +24°C° 0 mm 2 mps 755 mmHg 96%
    05:00 +25°C° 0 mm 2 mps 755 mmHg 96%
    06:00 +25°C° 0 mm 2 mps 755 mmHg 95%
    07:00 +25°C° 0 mm 2 mps 756 mmHg 94%
    08:00 +28°C° 0 mm 2 mps 756 mmHg 81%
    09:00 +30°C° 0 mm 1 mps 756 mmHg 68%
    10:00 +33°C° 0 mm 1 mps 756 mmHg 54%
    11:00 +35°C° 0 mm 1 mps 755 mmHg 49%
    12:00 +37°C° 0 mm 2 mps 755 mmHg 44%
    13:00 +38°C° 0 mm 3 mps 754 mmHg 39%
    14:00 +37°C° 0 mm 4 mps 754 mmHg 44%
    15:00 +36°C° 0 mm 5 mps 753 mmHg 49%
    16:00 +35°C° 0 mm 5 mps 753 mmHg 54%
    17:00 +33°C° 0 mm 5 mps 753 mmHg 62%
    18:00 +30°C° 0 mm 5 mps 753 mmHg 70%
    19:00 +28°C° 0 mm 4 mps 754 mmHg 77%
    20:00 +27°C° 0 mm 3 mps 754 mmHg 82%
    21:00 +26°C° 0 mm 2 mps 755 mmHg 86%
    22:00 +25°C° 0 mm 1 mps 755 mmHg 90%
    23:00 +25°C° 0 mm 1 mps 755 mmHg 91%

    Tomorrow, 31 May, Wednesday

    Time Temperature Precipitation Wind Pressure Humidity
    00:00 +25°C° 0 mm 1 mps 755 mmHg 91%
    01:00 +25°C° 0 mm 1 mps 755 mmHg 92%
    02:00 +25°C° 0 mm 1 mps 755 mmHg 93%
    03:00 +24°C° 0 mm 1 mps 755 mmHg 93%
    04:00 +24°C° 0 mm 1 mps 754 mmHg 94%
    05:00 +24°C° 0 mm 1 mps 754 mmHg 91%
    06:00 +25°C° 0 mm 1 mps 755 mmHg 89%
    07:00 +25°C° 0 mm 1 mps 755 mmHg 86%
    08:00 +28°C° 0 mm 1 mps 755 mmHg 72%
    09:00 +31°C° 0 mm 1 mps 755 mmHg 59%
    10:00 +34°C° 0 mm 1 mps 755 mmHg 45%
    11:00 +37°C° 0 mm 2 mps 755 mmHg 40%
    12:00 +39°C° 0 mm 2 mps 754 mmHg 35%
    13:00 +42°C° 0 mm 3 mps 753 mmHg 30%
    14:00 +40°C° 0 mm 4 mps 753 mmHg 36%
    15:00 +37°C° 0 mm 5 mps 752 mmHg 42%
    16:00 +35°C° 0 mm 6 mps 751 mmHg 47%
    17:00 +33°C° 0 mm 5 mps 752 mmHg 58%
    18:00 +29°C° 0 mm 4 mps 752 mmHg 69%
    19:00 +27°C° 0 mm 4 mps 753 mmHg 80%
    20:00 +26°C° 0 mm 3 mps 753 mmHg 83%
    21:00 +26°C° 0 mm 2 mps 754 mmHg 86%
    22:00 +25°C° 0 mm 2 mps 754 mmHg 88%
    23:00 +25°C° 0 mm 1 mps 754 mmHg 88%

    Day after tomorrow, 1 June, Thursday

    Time Temperature Precipitation Wind Pressure Humidity
    00:00 +25°C° 0 mm 1 mps 754 mmHg 88%
    01:00 +25°C° 0 mm 1 mps 755 mmHg 88%
    02:00 +25°C° 0 mm 1 mps 754 mmHg 90%
    03:00 +24°C° 0 mm 1 mps 754 mmHg 91%
    04:00 +24°C° 0 mm 1 mps 754 mmHg 93%
    05:00 +25°C° 0 mm 1 mps 754 mmHg 89%
    06:00 +25°C° 0 mm 1 mps 755 mmHg 86%
    07:00 +26°C° 0 mm 1 mps 755 mmHg 82%
    08:00 +29°C° 0 mm 1 mps 756 mmHg 69%
    09:00 +32°C° 0 mm 1 mps 756 mmHg 56%
    10:00 +35°C° 0 mm 1 mps 756 mmHg 43%
    11:00 +36°C° 0 mm 1 mps 755 mmHg 39%
    12:00 +39°C° 0 mm 2 mps 755 mmHg 36%
    13:00 +40°C° 0 mm 3 mps 754 mmHg 32%
    14:00 +38°C° 0 mm 4 mps 753 mmHg 37%
    15:00 +37°C° 0 mm 5 mps 753 mmHg 41%
    16:00 +35°C° 0 mm 6 mps 752 mmHg 46%
    17:00 +33°C° 0 mm 5 mps 753 mmHg 56%
    18:00 +30°C° 0 mm 5 mps 753 mmHg 65%
    19:00 +27°C° 0 mm 4 mps 753 mmHg 75%
    20:00 +27°C° 0 mm 4 mps 754 mmHg 79%
    21:00 +26°C° 0 mm 3 mps 754 mmHg 83%
    22:00 +25°C° 0 mm 3 mps 755 mmHg 87%
    23:00 +25°C° 0 mm 2 mps 755 mmHg 86%

    2 June, Friday

    Time Temperature Precipitation Wind Pressure Humidity
    00:00 +25°C° 0 mm 2 mps 755 mmHg 86%
    01:00 +25°C° 0 mm 2 mps 754 mmHg 86%
    02:00 +25°C° 0 mm 2 mps 754 mmHg 87%
    03:00 +24°C° 0 mm 2 mps 754 mmHg 88%
    04:00 +24°C° 0 mm 2 mps 754 mmHg 89%
    05:00 +24°C° 0 mm 1 mps 754 mmHg 86%
    06:00 +25°C° 0 mm 1 mps 755 mmHg 83%
    07:00 +25°C° 0 mm 1 mps 755 mmHg 80%
    08:00 +28°C° 0 mm 1 mps 755 mmHg 68%
    09:00 +31°C° 0 mm 1 mps 756 mmHg 57%
    10:00 +34°C° 0 mm 1 mps 756 mmHg 45%
    11:00 +35°C° 0 mm 1 mps 755 mmHg 42%
    12:00 +37°C° 0 mm 2 mps 755 mmHg 39%
    13:00 +38°C° 0 mm 3 mps 754 mmHg 37%
    14:00 +36°C° 0 mm 4 mps 753 mmHg 44%
    15:00 +35°C° 0 mm 5 mps 753 mmHg 51%
    16:00 +33°C° 0 mm 6 mps 752 mmHg 58%
    17:00 +32°C° 0 mm 5 mps 753 mmHg 67%
    18:00 +29°C° 0 mm 5 mps 753 mmHg 75%
    19:00 +27°C° 0 mm 5 mps 754 mmHg 84%
    20:00 +26°C° 0 mm 4 mps 754 mmHg 87%
    21:00 +25°C° 0 mm 3 mps 755 mmHg 91%
    22:00 +25°C° 0 mm 2 mps 755 mmHg 95%
    23:00 +25°C° 0 mm 2 mps 755 mmHg 95%

    3 June, Saturday

    Time Temperature Precipitation Wind Pressure Humidity
    00:00 +25°C° 0 mm 2 mps 755 mmHg 96%
    01:00 +24°C° 0 mm 2 mps 755 mmHg 96%
    02:00 +24°C° 0 mm 2 mps 755 mmHg 97%
    03:00 +24°C° 0 mm 2 mps 755 mmHg 97%
    04:00 +24°C° 0 mm 2 mps 755 mmHg 97%
    05:00 +24°C° 0 mm 2 mps 755 mmHg 95%
    06:00 +24°C° 0 mm 1 mps 756 mmHg 93%
    07:00 +25°C° 0 mm 1 mps 756 mmHg 91%
    08:00 +27°C° 0 mm 1 mps 756 mmHg 78%
    09:00 +30°C° 0 mm 1 mps 756 mmHg 65%
    10:00 +32°C° 0 mm 1 mps 756 mmHg 51%
    11:00 +35°C° 0 mm 2 mps 756 mmHg 47%
    12:00 +36°C° 0 mm 3 mps 755 mmHg 43%
    13:00 +37°C° 0 mm 4 mps 754 mmHg 38%
    14:00 +36°C° 0 mm 5 mps 754 mmHg 43%
    15:00 +35°C° 0 mm 5 mps 753 mmHg 47%
    16:00 +34°C° 0 mm 6 mps 753 mmHg 52%
    17:00 +32°C° 0 mm 5 mps 753 mmHg 60%
    18:00 +29°C° 0 mm 5 mps 753 mmHg 69%
    19:00 +27°C° 0 mm 5 mps 754 mmHg 77%
    20:00 +26°C° 0 mm 4 mps 754 mmHg 82%
    21:00 +25°C° 0 mm 4 mps 755 mmHg 87%
    22:00 +23°C° 0 mm 4 mps 755 mmHg 92%
    23:00 +24°C° 0 mm 3 mps 755 mmHg 93%

    4 June, Sunday

    Time Temperature Precipitation Wind Pressure Humidity
    00:00 +24°C° 0 mm 3 mps 755 mmHg 94%
    01:00 +22°C° 0 mm 3 mps 755 mmHg 95%
    02:00 +22°C° 0 mm 3 mps 755 mmHg 96%
    03:00 +23°C° 0 mm 2 mps 755 mmHg 96%
    04:00 +23°C° 0 mm 2 mps 754 mmHg 96%
    05:00 +23°C° 0 mm 2 mps 755 mmHg 94%
    06:00 +24°C° 0 mm 2 mps 755 mmHg 92%
    07:00 +24°C° 0 mm 2 mps 756 mmHg 90%
    08:00 +27°C° 0 mm 2 mps 756 mmHg 75%
    09:00 +29°C° 0 mm 2 mps 755 mmHg 61%
    10:00 +33°C° 0 mm 3 mps 755 mmHg 46%
    11:00 +35°C° 0 mm 3 mps 755 mmHg 41%
    12:00 +37°C° 0 mm 3 mps 754 mmHg 36%
    13:00 +38°C° 0 mm 4 mps 753 mmHg 30%
    14:00 +37°C° 0 mm 4 mps 753 mmHg 35%
    15:00 +36°C° 0 mm 5 mps 752 mmHg 40%
    16:00 +35°C° 0 mm 6 mps 752 mmHg 44%
    17:00 +32°C° 0 mm 5 mps 752 mmHg 55%
    18:00 +29°C° 0 mm 5 mps 753 mmHg 66%
    19:00 +27°C° 0 mm 5 mps 753 mmHg 77%
    20:00 +26°C° 0 mm 4 mps 754 mmHg 83%
    21:00 +25°C° 0 mm 4 mps 754 mmHg 88%
    22:00 +24°C° 0 mm 3 mps 754 mmHg 94%
    23:00 +24°C° 0 mm 3 mps 754 mmHg 94%
    Show more